QPF
0.00 0.00 0.00 0.00 0.00 0.00 0.00 0.00 0.00 0.00 0.00 0.00 0.00 0.00 0.00 0.00 0.00 0.00 0.00 0.00 0.00 0.00 0.00 0.00 0.00 0.00 0.00 0.00 0.00 0.00 0.00 0.00 0.00 0.00 0.00 0.00 0.00 0.00 0.00 0.00 0.00 0.00 0.00 0.00
0.00 0.00 0.00 0.00 0.00 0.00 0.00 0.00 0.00 0.00 0.00 0.00 0.00 0.00 0.00 0.00 0.00 0.00 0.00 0.00 0.00 0.00 0.00 0.00 0.00 0.00 0.00 0.00 0.00 0.00 0.00 0.00 0.00 0.00 0.00 0.00 0.00 0.00 0.00 0.00 0.00 0.00 0.00 0.00
0.00 0.00 0.00 0.00 0.00 0.00 0.00 0.00 0.00 0.00 0.00 0.00 0.00 0.00 0.00 0.00 0.00 0.00 0.00 0.00 0.00 0.00 0.00 0.00 0.00 0.00 0.00 0.00 0.00 0.00 0.00 0.00 0.00 0.00 0.00 0.00 0.00 0.00 0.00 0.00 0.00 0.00 0.00 0.00
0.00 0.00 0.00 0.00 0.00 0.00 0.00 0.00 0.00 0.00 0.00 0.00 0.00 0.00 0.00 0.00 0.00 0.00 0.00 0.00 0.00 0.00 0.00 0.00 0.00 0.00 0.00 0.00 0.00 0.00 0.00 0.00 0.00 0.00 0.00 0.00 0.00 0.00 0.00 0.00 0.00 0.00 0.00 0.00
0.00 0.00 0.00 0.00 0.00 0.00 0.00 0.00 0.00 0.00 0.00 0.00 0.00 0.00 0.00 0.00 0.00 0.00 0.00 0.00 0.00 0.00 0.00 0.00 0.00 0.00 0.00 0.00 0.00 0.00 0.00 0.00 0.00 0.00 0.00 0.00 0.00 0.00 0.00 0.00 0.00 0.00 0.00 0.00
0.00 0.00 0.00 0.00 0.00 0.00 0.00 0.00 0.00 0.00 0.00 0.00 0.00 0.00 0.00 0.00 0.00 0.00 0.00 0.00 0.00 0.00 0.00 0.00 0.00 0.00 0.00 0.00 0.00 0.00 0.00 0.00 0.00 0.00 0.00 0.00 0.00 0.00 0.00 0.00 0.00 0.00 0.00 0.00
0.00 0.00 0.00 0.00 0.00 0.00 0.00 0.00 0.00 0.00 0.00 0.00 0.00 0.00 0.00 0.00 0.00 0.00 0.00 0.00 0.00 0.00 0.00 0.00 0.00 0.00 0.00 0.00 0.00 0.00 0.00 0.00 0.00 0.00 0.00 0.00 0.00 0.00 0.00 0.00 0.00 0.00 0.00 0.00
0.00 0.00 0.00 0.00 0.00 0.00 0.00 0.00 0.00 0.01 0.00 0.00 0.00 0.00 0.00 0.00 0.00 0.00 0.00 0.00 0.00 0.00 0.00 0.00 0.00 0.00 0.00 0.00 0.00 0.00 0.00 0.00 0.00 0.00 0.00 0.00 0.00 0.00 0.00 0.00 0.00 0.00 0.00 0.00
0.00 0.00 0.00 0.00 0.00 0.00 0.00 0.00 0.00 0.00 0.00 0.00 0.00 0.00 0.00 0.00 0.00 0.00 0.00 0.00 0.00 0.00 0.00 0.00 0.00 0.00 0.00 0.00 0.00 0.00 0.00 0.00 0.00 0.00 0.00 0.00 0.00 0.00 0.00 0.00 0.00 0.00 0.00 0.00
0.00 0.00 0.00 0.00 0.00 0.00 0.00 0.00 0.00 0.00 0.00 0.00 0.00 0.00 0.00 0.00 0.00 0.00 0.00 0.00 0.00 0.00 0.00 0.00 0.00 0.00 0.00 0.00 0.00 0.00 0.00 0.00 0.00 0.00 0.00 0.00 0.00 0.00 0.00 0.00 0.00 0.00 0.00 0.00
0.00 0.00 0.00 0.00 0.00 0.00 0.00 0.00 0.00 0.00 0.00 0.00 0.00 0.00 0.00 0.00 0.00 0.00 0.00 0.00 0.00 0.00 0.00 0.00 0.00 0.00 0.00 0.00 0.00 0.00 0.00 0.00 0.00 0.00 0.00 0.00 0.00 0.00 0.00 0.00 0.00 0.00 0.00 0.00
0.00 0.00 0.00 0.00 0.00 0.00 0.00 0.00 0.00 0.00 0.00 0.00 0.00 0.00 0.00 0.00 0.00 0.00 0.00 0.00 0.00 0.00 0.00 0.00 0.00 0.00 0.00 0.00 0.00 0.00 0.00 0.00 0.00 0.00 0.00 0.00 0.00 0.00 0.00 0.00 0.00 0.00 0.00 0.00
0.00 0.00 0.00 0.00 0.00 0.00 0.00 0.00 0.00 0.00 0.00 0.00 0.00 0.00 0.00 0.00 0.00 0.00 0.00 0.00 0.00 0.00 0.00 0.00 0.00 0.00 0.00 0.00 0.00 0.00 0.00 0.00 0.00 0.00 0.00 0.00 0.00 0.00 0.00 0.00 0.00 0.00 0.00 0.00
0.00 0.00 0.00 0.00 0.00 0.00 0.00 0.00 0.00 0.00 0.00 0.00 0.00 0.00 0.00 0.00 0.00 0.00 0.00 0.00 0.00 0.00 0.00 0.00 0.00 0.00 0.00 0.00 0.00 0.00 0.00 0.00 0.00 0.00 0.00 0.00 0.00 0.00 0.00 0.00 0.00 0.00 0.00 0.00
0.00 0.00 0.00 0.00 0.00 0.00 0.00 0.00 0.00 0.00 0.00 0.00 0.00 0.00 0.00 0.00 0.00 0.00 0.00 0.00 0.00 0.00 0.00 0.00 0.00 0.00 0.00 0.00 0.00 0.00 0.00 0.00 0.00 0.01 0.00 0.00 0.01 0.01 0.00 0.00 0.01 0.01 0.00 0.01
0.00 0.00 0.00 0.00 0.00 0.00 0.00 0.00 0.00 0.00 0.00 0.00 0.00 0.00 0.00 0.00 0.00 0.00 0.00 0.00 0.00 0.00 0.00 0.00 0.00 0.00 0.00 0.00 0.00 0.00 0.00 0.00 0.00 0.00 0.00 0.00 0.01 0.03 0.02 0.01 0.04 0.03 0.01 0.02
0.00 0.00 0.00 0.00 0.00 0.00 0.00 0.00 0.00 0.00 0.00 0.00 0.00 0.00 0.00 0.00 0.00 0.00 0.00 0.00 0.00 0.00 0.00 0.00 0.00 0.00 0.00 0.00 0.00 0.00 0.00 0.00 0.00 0.00 0.00 0.00 0.00 0.01 0.02 0.03 0.02 0.02 0.01 0.00
0.00 0.00 0.00 0.00 0.00 0.00 0.00 0.00 0.00 0.00 0.00 0.00 0.00 0.00 0.00 0.00 0.00 0.00 0.00 0.00 0.00 0.00 0.00 0.00 0.00 0.00 0.00 0.00 0.00 0.00 0.00 0.00 0.00 0.00 0.00 0.00 0.00 0.00 0.00 0.01 0.00 0.00 0.00 0.00
0.00 0.00 0.00 0.00 0.00 0.00 0.00 0.00 0.00 0.00 0.00 0.00 0.00 0.00 0.00 0.00 0.00 0.00 0.00 0.00 0.00 0.00 0.00 0.00 0.00 0.00 0.00 0.00 0.00 0.00 0.00 0.00 0.00 0.00 0.00 0.00 0.00 0.00 0.00 0.00 0.00 0.00 0.00 0.00
0.00 0.00 0.00 0.00 0.00 0.00 0.00 0.00 0.00 0.00 0.00 0.00 0.00 0.00 0.00 0.00 0.00 0.00 0.00 0.00 0.00 0.00 0.00 0.00 0.01 0.01 0.00 0.00 0.00 0.00 0.00 0.00 0.00 0.00 0.00 0.00 0.00 0.00 0.00 0.00 0.00 0.00 0.00 0.00
0.00 0.00 0.00 0.00 0.00 0.00 0.00 0.00 0.00 0.00 0.00 0.00 0.00 0.00 0.00 0.00 0.00 0.00 0.00 0.00 0.00 0.00 0.00 0.00 0.00 0.01 0.02 0.03 0.02 0.01 0.02 0.01 0.00 0.00 0.00 0.00 0.00 0.00 0.00 0.00 0.00 0.00 0.00 0.00
0.01 0.00 0.00 0.00 0.00 0.00 0.00 0.00 0.00 0.00 0.00 0.00 0.00 0.00 0.00 0.00 0.00 0.00 0.00 0.00 0.00 0.00 0.00 0.00 0.00 0.00 0.01 0.02 0.04 0.06 0.04 0.02 0.00 0.00 0.00 0.00 0.00 0.00 0.00 0.00 0.00 0.00 0.00 0.00
0.00 0.00 0.00 0.00 0.00 0.00 0.00 0.00 0.00 0.00 0.00 0.00 0.00 0.00 0.00 0.00 0.00 0.00 0.00 0.00 0.00 0.00 0.00 0.00 0.00 0.00 0.00 0.00 0.00 0.01 0.02 0.01 0.00 0.00 0.00 0.00 0.00 0.00 0.00 0.00 0.00 0.00 0.00 0.00
0.00 0.00 0.00 0.00 0.00 0.00 0.00 0.00 0.00 0.00 0.00 0.00 0.00 0.00 0.00 0.00 0.00 0.00 0.00 0.00 0.00 0.00 0.00 0.00 0.00 0.00 0.00 0.00 0.00 0.00 0.00 0.00 0.00 0.00 0.00 0.00 0.00 0.00 0.00 0.00 0.00 0.00 0.00 0.00
0.00 0.00 0.00 0.00 0.00 0.00 0.00 0.00 0.00 0.00 0.00 0.00 0.00 0.00 0.00 0.00 0.00 0.00 0.00 0.00 0.00 0.00 0.00 0.00 0.00 0.00 0.00 0.00 0.00 0.00 0.00 0.00 0.00 0.00 0.00 0.00 0.00 0.00 0.00 0.00 0.00 0.00 0.00 0.00
0.00 0.00 0.00 0.00 0.00 0.00 0.00 0.00 0.00 0.00 0.00 0.00 0.00 0.00 0.00 0.00 0.00 0.00 0.00 0.00 0.00 0.00 0.00 0.00 0.00 0.00 0.00 0.00 0.00 0.00 0.00 0.00 0.00 0.00 0.00 0.00 0.00 0.00 0.00 0.00 0.00 0.00 0.00 0.00
0.00 0.00 0.00 0.00 0.00 0.00 0.00 0.00 0.00 0.00 0.00 0.00 0.00 0.00 0.00 0.00 0.00 0.00 0.00 0.00 0.00 0.00 0.00 0.00 0.00 0.00 0.00 0.00 0.00 0.00 0.00 0.00 0.00 0.00 0.00 0.00 0.00 0.00 0.00 0.00 0.00 0.00 0.00 0.00
MSLP
1007.65 1004.01 1001.15 998.63 996.53 995.12 995.19 995.18 995.71 995.85 995.70 994.72 994.19 993.19 992.10 991.63 991.88 992.17 992.68 993.55 994.51 995.66 996.87 998.06 999.25 1000.20 1001.27 1002.21 1003.26 1004.16 1005.15 1005.89 1006.50 1007.12 1007.64 1008.38 1009.13 1009.61 1010.18 1010.89 1011.37 1011.69 1012.14 1012.44
1006.39 1001.71 999.62 997.78 995.79 994.87 994.53 994.60 995.07 995.31 995.21 994.09 994.02 994.33 992.70 992.33 992.37 992.48 992.74 993.10 993.89 994.89 995.99 997.16 998.20 999.13 1000.13 1001.12 1002.01 1003.10 1003.91 1004.59 1005.31 1006.21 1006.88 1007.47 1008.03 1008.70 1009.35 1009.86 1010.32 1010.87 1011.13 1011.53
1006.33 1001.87 999.00 997.90 997.44 995.31 994.30 994.64 995.30 995.79 995.39 994.74 995.49 996.02 995.15 994.33 993.32 993.55 993.53 993.58 993.74 994.40 995.12 995.91 997.05 998.04 999.24 1000.07 1001.23 1002.21 1002.96 1003.81 1004.53 1005.21 1005.99 1006.63 1007.11 1007.77 1008.34 1008.82 1009.39 1009.70 1010.04 1010.40
1006.32 1002.67 1000.12 999.39 998.07 996.93 996.73 997.27 997.38 996.46 995.49 995.69 996.44 996.67 996.29 996.10 995.81 994.96 994.77 994.80 994.99 995.28 995.91 996.57 997.25 998.10 999.00 1000.11 1000.73 1001.38 1002.15 1002.87 1003.63 1004.41 1005.09 1005.73 1006.45 1006.90 1007.31 1007.86 1008.30 1008.67 1008.98 1009.26
1006.95 1003.62 1000.23 999.18 999.53 999.46 999.46 1000.48 999.83 998.24 996.62 996.58 996.84 995.66 997.75 997.90 997.52 997.21 996.60 996.05 996.07 995.93 996.18 996.53 996.98 997.43 998.39 999.33 999.88 1000.69 1001.38 1001.76 1002.40 1003.16 1004.00 1004.74 1005.35 1005.86 1006.24 1006.78 1007.21 1007.48 1007.75 1008.16
1007.09 1004.91 1003.49 1004.23 1001.27 998.81 998.90 1001.43 1001.70 1000.65 999.75 998.75 997.49 998.55 1000.46 999.62 998.77 998.24 997.75 997.30 996.89 996.74 996.87 997.03 997.52 997.54 997.98 998.54 999.24 999.73 1000.12 1000.65 1001.52 1002.27 1002.93 1003.56 1004.15 1004.71 1005.05 1005.56 1005.96 1006.30 1006.55 1006.78
1007.13 1005.82 1005.55 1005.11 1003.62 1000.74 1002.22 1005.12 1003.68 1002.68 1002.02 1001.54 1001.19 1001.47 1001.52 1000.52 999.57 999.28 998.86 998.36 997.85 997.31 997.41 997.54 997.64 997.63 998.13 998.61 998.73 998.51 999.23 1000.09 1000.74 1001.23 1001.75 1002.42 1003.14 1003.77 1004.34 1004.77 1005.19 1005.43 1005.57 1005.76
1008.48 1007.50 1008.17 1007.27 1006.08 1005.93 1007.19 1005.77 1004.76 1004.08 1003.43 1003.07 1002.61 1001.34 1001.53 1001.15 1000.63 1000.04 999.55 999.09 998.83 998.29 998.20 997.90 997.77 997.91 998.55 999.04 998.98 999.05 999.33 999.85 1000.13 1000.44 1001.14 1001.91 1002.45 1003.02 1003.49 1003.97 1004.33 1004.55 1004.85 1005.04
1011.35 1009.89 1009.21 1008.54 1008.71 1007.61 1007.50 1006.94 1006.76 1005.67 1004.30 1003.39 1002.73 1002.07 1002.55 1002.21 1001.83 1001.42 1000.85 1000.28 999.96 999.61 999.33 999.00 998.66 998.98 999.61 999.89 999.44 999.12 999.32 999.59 999.91 1000.31 1000.74 1001.15 1001.83 1002.34 1002.88 1003.26 1003.57 1003.94 1004.26 1004.44
1011.07 1009.74 1009.66 1009.11 1008.44 1008.30 1008.07 1007.71 1007.71 1007.14 1005.52 1003.90 1003.03 1003.03 1003.21 1002.71 1002.68 1002.28 1001.76 1001.20 1000.82 1000.40 1000.25 1000.09 999.76 999.67 1000.03 1000.08 1000.01 999.73 999.77 999.69 999.77 1000.06 1000.41 1000.76 1001.26 1001.81 1002.31 1002.68 1002.95 1003.29 1003.66 1003.99
1011.73 1010.98 1010.03 1009.03 1009.08 1009.59 1008.57 1008.18 1007.11 1005.79 1004.94 1004.26 1003.94 1003.74 1003.25 1003.29 1003.28 1002.98 1002.40 1001.70 1001.46 1001.46 1001.38 1000.96 1000.19 1000.06 1000.04 1000.04 1000.03 1000.06 999.98 999.73 999.61 999.74 1000.07 1000.54 1001.43 1002.28 1002.20 1001.84 1001.68 1002.31 1002.84 1003.30
1012.12 1011.82 1011.88 1010.61 1010.24 1010.15 1009.72 1008.09 1008.02 1007.25 1006.14 1005.36 1004.68 1004.28 1004.27 1004.27 1004.02 1003.81 1003.31 1002.83 1002.54 1002.19 1001.76 1001.25 1000.74 999.98 999.76 1000.00 1000.31 1000.48 1000.43 1000.11 999.77 999.74 1000.02 1000.40 1001.39 1002.51 1002.98 1002.93 1002.53 1002.10 1002.16 1002.63
1011.63 1010.75 1010.10 1009.67 1009.52 1009.48 1009.42 1008.67 1006.89 1007.38 1007.31 1006.63 1005.67 1004.97 1004.66 1004.94 1004.84 1004.41 1003.86 1003.34 1003.10 1002.79 1002.21 1001.64 1001.09 1000.49 999.89 999.80 1000.00 1000.22 1000.39 1000.06 999.76 999.67 999.76 1000.02 1000.58 1001.58 1002.95 1003.83 1003.70 1003.62 1003.45 1003.31
1011.18 1009.59 1009.00 1008.69 1008.62 1008.59 1008.52 1008.17 1007.85 1007.24 1006.92 1006.26 1005.98 1005.63 1005.15 1005.07 1004.98 1004.95 1004.65 1003.96 1003.20 1002.41 1001.95 1001.45 1000.91 1000.46 999.87 999.88 1000.14 1000.27 1000.10 999.83 999.68 999.60 999.59 999.89 1000.34 1001.40 1002.37 1002.94 1003.80 1004.55 1004.63 1004.68
1011.08 1010.52 1009.91 1009.02 1008.56 1007.64 1006.80 1006.77 1006.74 1006.43 1006.30 1006.44 1006.10 1005.84 1005.58 1005.43 1005.39 1005.26 1004.68 1004.00 1003.39 1002.97 1002.41 1001.65 1001.07 1000.48 1000.16 999.92 1000.19 1000.31 1000.14 999.88 999.89 1000.02 999.97 1000.08 1000.55 1001.24 1002.01 1002.78 1003.80 1004.59 1005.20 1005.48
1011.71 1010.84 1010.04 1009.29 1008.28 1007.37 1006.67 1006.81 1007.25 1007.07 1007.08 1006.62 1006.07 1005.79 1005.62 1005.32 1005.20 1005.10 1004.72 1004.22 1003.89 1003.81 1003.06 1002.00 1001.58 1000.95 1000.39 1000.21 1000.39 1000.53 1000.49 1000.32 1000.31 1000.57 1000.77 1001.04 1001.19 1001.85 1002.62 1003.39 1004.23 1004.96 1005.45 1005.73
1012.24 1011.21 1010.79 1009.97 1008.62 1007.34 1006.67 1006.51 1006.81 1007.07 1006.74 1006.10 1005.49 1005.61 1005.52 1005.22 1005.25 1005.18 1004.92 1004.73 1004.44 1003.69 1003.08 1002.43 1002.21 1001.21 1000.68 1000.28 1000.31 1000.65 1000.89 1001.26 1001.20 1001.43 1001.77 1002.24 1002.59 1003.01 1003.66 1004.36 1005.08 1005.57 1005.92 1006.21
1014.28 1013.45 1012.56 1011.35 1009.99 1008.78 1007.71 1007.02 1006.59 1006.02 1005.73 1005.76 1005.76 1005.85 1005.80 1005.40 1005.52 1005.57 1005.23 1004.54 1004.60 1004.19 1003.63 1003.05 1002.60 1001.56 1000.59 1000.33 999.97 1000.62 1001.55 1002.00 1002.23 1002.70 1003.11 1003.17 1003.68 1004.27 1004.74 1005.29 1005.72 1006.08 1006.37 1006.68
1014.80 1014.34 1013.65 1012.62 1011.55 1010.21 1009.15 1008.58 1007.87 1007.07 1006.57 1006.31 1006.04 1005.99 1006.12 1005.96 1005.77 1005.91 1005.84 1005.26 1005.03 1005.17 1004.70 1003.86 1003.03 1001.91 1001.09 1000.53 1000.05 1000.59 1001.42 1002.40 1003.03 1003.56 1004.07 1004.64 1004.83 1005.17 1005.73 1006.12 1006.55 1006.83 1006.90 1006.88
1014.77 1014.53 1014.01 1013.33 1012.53 1011.61 1010.84 1010.21 1009.40 1008.77 1008.57 1008.10 1007.81 1007.57 1007.18 1006.81 1006.64 1006.52 1006.22 1006.18 1006.10 1006.10 1005.62 1004.85 1003.86 1002.91 1002.33 1002.03 1001.24 1001.38 1002.01 1002.52 1002.92 1004.08 1004.51 1005.19 1005.82 1006.11 1006.29 1006.81 1007.07 1007.44 1007.64 1007.72
1014.81 1014.64 1014.34 1013.74 1013.28 1012.85 1012.17 1011.42 1010.82 1010.39 1010.26 1009.66 1009.07 1009.06 1008.97 1008.58 1007.77 1007.62 1007.14 1006.84 1007.12 1006.76 1006.06 1005.10 1004.75 1004.03 1003.52 1003.29 1002.74 1002.34 1002.47 1003.58 1003.89 1004.20 1005.07 1005.58 1006.37 1006.97 1007.32 1007.66 1008.00 1008.15 1008.45 1008.71
1014.45 1014.37 1014.29 1014.06 1013.73 1013.51 1013.29 1012.85 1012.26 1012.08 1011.79 1011.29 1010.92 1010.67 1010.19 1010.09 1009.53 1009.15 1008.41 1008.53 1008.22 1007.47 1006.56 1005.74 1006.11 1005.46 1004.92 1004.90 1003.77 1003.90 1003.46 1004.27 1004.97 1005.41 1004.93 1005.86 1006.87 1007.58 1008.16 1008.56 1008.92 1009.32 1009.58 1009.76
1014.21 1014.08 1013.96 1013.93 1013.68 1013.41 1013.30 1013.27 1013.06 1012.76 1012.83 1012.82 1012.55 1012.34 1012.13 1011.76 1011.12 1010.17 1009.54 1009.66 1008.94 1008.04 1008.13 1007.04 1007.33 1006.18 1006.13 1005.81 1005.33 1004.87 1004.90 1005.16 1006.65 1006.55 1007.19 1006.85 1007.48 1008.38 1009.07 1009.55 1009.89 1010.15 1010.46 1010.72
1013.89 1013.93 1013.98 1013.95 1013.76 1013.63 1013.35 1012.95 1013.06 1013.14 1013.02 1012.95 1012.96 1012.92 1012.77 1012.50 1011.78 1011.26 1010.96 1010.43 1009.53 1009.40 1008.99 1009.01 1007.77 1007.97 1008.29 1006.81 1006.77 1006.62 1007.12 1008.30 1006.93 1008.17 1008.54 1008.59 1009.32 1009.59 1010.00 1010.37 1010.74 1011.24 1011.35 1011.55
1014.02 1014.06 1014.05 1013.98 1013.93 1013.79 1013.46 1013.23 1012.96 1013.07 1013.10 1013.19 1012.92 1012.63 1012.24 1012.26 1012.47 1011.65 1011.42 1011.05 1010.71 1010.33 1009.87 1009.56 1009.45 1009.70 1009.74 1007.57 1008.48 1008.54 1009.16 1009.25 1009.05 1009.67 1010.21 1010.27 1010.37 1010.60 1011.27 1010.86 1010.90 1011.42 1011.91 1012.18
1014.36 1014.45 1014.29 1014.01 1014.06 1013.85 1013.74 1013.56 1013.52 1013.47 1013.34 1013.23 1013.08 1012.65 1012.42 1011.79 1011.48 1011.58 1011.55 1011.35 1010.67 1010.16 1010.34 1010.15 1010.37 1009.99 1009.90 1009.45 1009.95 1010.57 1010.65 1010.96 1011.09 1011.26 1011.41 1011.81 1010.93 1011.14 1011.62 1011.82 1011.71 1012.08 1012.40 1012.59
1014.46 1014.40 1014.48 1014.33 1014.31 1014.10 1013.98 1013.97 1014.01 1014.09 1013.84 1013.65 1013.51 1013.22 1012.87 1012.54 1012.13 1011.81 1011.42 1011.24 1010.99 1010.75 1010.67 1010.67 1010.50 1010.63 1011.10 1010.59 1011.00 1011.55 1011.52 1012.46 1011.58 1011.67 1012.39 1012.37 1011.84 1011.94 1011.93 1012.57 1012.45 1012.38 1012.72 1012.90
Thickness
5602 5644 5670 5699 5730 5757 5749 5769 5753 5775 5778 5803 5819 5836 5858 5869 5865 5867 5873 5874 5874 5871 5872 5869 5864 5862 5857 5856 5854 5853 5849 5847 5846 5845 5844 5841 5837 5836 5833 5830 5827 5826 5822 5821
5621 5681 5701 5716 5746 5756 5765 5774 5772 5775 5781 5821 5832 5830 5853 5859 5862 5862 5870 5875 5876 5876 5875 5871 5868 5867 5864 5861 5860 5858 5854 5853 5853 5849 5847 5844 5842 5839 5836 5834 5832 5829 5828 5825
5611 5669 5708 5708 5715 5751 5772 5781 5783 5761 5788 5819 5801 5808 5823 5836 5855 5853 5858 5869 5874 5877 5878 5879 5876 5874 5867 5866 5864 5859 5857 5855 5855 5853 5849 5848 5847 5844 5841 5839 5837 5835 5834 5833
5605 5649 5668 5695 5715 5728 5732 5738 5746 5762 5793 5797 5798 5806 5817 5825 5830 5842 5849 5853 5856 5863 5867 5868 5871 5869 5868 5862 5861 5861 5859 5858 5858 5857 5854 5852 5849 5848 5847 5845 5842 5840 5839 5839
5596 5637 5688 5693 5688 5695 5696 5695 5722 5745 5785 5791 5797 5815 5799 5808 5817 5821 5830 5840 5848 5858 5863 5867 5870 5874 5870 5865 5865 5861 5860 5864 5866 5865 5860 5857 5854 5853 5852 5849 5848 5847 5847 5845
5591 5620 5631 5627 5670 5710 5719 5676 5705 5722 5739 5762 5785 5763 5759 5787 5803 5811 5822 5830 5839 5847 5854 5859 5860 5866 5871 5869 5866 5865 5869 5872 5871 5868 5865 5862 5860 5858 5858 5856 5853 5852 5853 5854
5594 5612 5612 5621 5648 5692 5656 5647 5684 5704 5719 5729 5734 5743 5756 5776 5793 5801 5808 5819 5831 5840 5843 5850 5855 5860 5858 5862 5867 5878 5877 5872 5869 5871 5870 5868 5864 5862 5859 5857 5855 5855 5855 5856
5571 5594 5587 5608 5628 5619 5618 5651 5670 5688 5704 5713 5726 5747 5752 5764 5777 5790 5800 5810 5819 5828 5833 5841 5848 5852 5847 5848 5858 5864 5867 5866 5869 5871 5869 5864 5862 5861 5859 5857 5854 5854 5853 5853
5542 5568 5586 5601 5602 5614 5625 5639 5651 5673 5697 5710 5723 5736 5738 5746 5758 5772 5784 5795 5805 5811 5818 5826 5835 5836 5832 5835 5846 5855 5857 5858 5861 5863 5863 5863 5859 5857 5854 5853 5851 5849 5849 5849
5545 5581 5581 5594 5608 5615 5620 5629 5637 5655 5679 5699 5712 5721 5725 5735 5742 5756 5769 5780 5790 5798 5803 5808 5818 5825 5826 5830 5836 5842 5843 5846 5849 5850 5851 5853 5855 5854 5850 5847 5846 5845 5844 5844
5541 5565 5577 5600 5601 5600 5610 5619 5635 5658 5679 5690 5698 5703 5716 5720 5727 5738 5755 5769 5777 5782 5787 5796 5809 5814 5820 5824 5828 5829 5834 5839 5843 5845 5843 5844 5839 5838 5845 5851 5850 5844 5844 5843
5541 5554 5560 5576 5579 5583 5595 5615 5619 5639 5657 5675 5683 5693 5700 5705 5712 5721 5735 5751 5758 5767 5776 5785 5796 5807 5816 5818 5817 5819 5822 5828 5835 5837 5836 5836 5830 5825 5821 5824 5831 5837 5840 5840
5551 5563 5575 5580 5582 5585 5587 5598 5621 5622 5633 5650 5665 5677 5689 5692 5698 5706 5719 5734 5746 5754 5765 5775 5784 5794 5805 5811 5813 5812 5813 5820 5826 5831 5833 5833 5831 5824 5815 5811 5811 5814 5817 5819
5556 5574 5581 5583 5581 5585 5593 5602 5609 5616 5629 5642 5655 5662 5676 5685 5692 5696 5705 5718 5734 5747 5760 5769 5778 5785 5796 5802 5802 5803 5808 5813 5818 5822 5825 5826 5823 5816 5811 5809 5802 5798 5797 5797
5547 5556 5561 5571 5576 5586 5595 5600 5606 5616 5625 5627 5636 5650 5658 5670 5679 5685 5697 5711 5724 5738 5748 5759 5768 5776 5784 5791 5790 5792 5797 5804 5807 5809 5811 5813 5811 5808 5803 5798 5792 5787 5784 5782
5539 5544 5544 5551 5565 5580 5589 5588 5593 5600 5601 5609 5625 5633 5645 5657 5667 5676 5689 5702 5711 5716 5726 5740 5751 5762 5772 5776 5777 5779 5783 5788 5792 5792 5793 5794 5795 5791 5787 5782 5775 5771 5770 5769
5522 5527 5522 5525 5535 5557 5578 5582 5583 5586 5596 5607 5617 5627 5637 5647 5654 5664 5675 5686 5693 5705 5716 5726 5732 5747 5759 5764 5764 5764 5766 5767 5771 5773 5773 5771 5771 5769 5764 5760 5755 5753 5752 5748
5494 5496 5495 5501 5506 5520 5540 5559 5570 5581 5593 5599 5607 5614 5622 5633 5639 5644 5655 5670 5676 5686 5697 5707 5716 5731 5746 5752 5756 5751 5748 5748 5749 5747 5747 5748 5746 5744 5742 5738 5736 5735 5734 5733
5483 5480 5482 5486 5490 5498 5508 5521 5536 5556 5571 5581 5590 5598 5604 5613 5622 5628 5634 5647 5655 5663 5674 5688 5701 5714 5724 5735 5744 5741 5736 5731 5728 5726 5723 5720 5720 5719 5716 5715 5713 5712 5713 5716
5483 5480 5479 5481 5483 5489 5495 5501 5512 5521 5525 5537 5550 5561 5573 5586 5598 5608 5615 5620 5628 5636 5650 5663 5675 5689 5698 5705 5715 5719 5714 5714 5714 5707 5706 5701 5697 5696 5696 5692 5693 5692 5692 5692
5482 5479 5476 5477 5478 5480 5485 5490 5496 5499 5502 5509 5517 5522 5532 5546 5566 5577 5590 5599 5601 5612 5627 5644 5652 5661 5671 5678 5685 5695 5696 5690 5691 5689 5685 5683 5678 5674 5671 5669 5667 5667 5665 5663
5484 5482 5478 5476 5474 5471 5473 5477 5482 5482 5485 5487 5489 5494 5502 5510 5525 5540 5558 5563 5573 5589 5606 5620 5622 5633 5642 5646 5660 5664 5672 5667 5663 5662 5667 5663 5656 5650 5647 5644 5643 5641 5639 5637
5483 5481 5481 5477 5476 5476 5474 5471 5472 5473 5470 5468 5471 5476 5479 5485 5495 5512 5527 5533 5549 5565 5572 5591 5594 5609 5615 5620 5630 5637 5640 5642 5631 5633 5628 5631 5627 5621 5616 5615 5615 5614 5612 5610
5482 5478 5477 5477 5474 5472 5475 5475 5472 5470 5471 5471 5470 5470 5472 5476 5485 5492 5501 5510 5527 5535 5546 5553 5572 5576 5578 5593 5599 5602 5601 5595 5609 5602 5601 5601 5593 5593 5591 5588 5588 5586 5585 5584
5478 5473 5471 5471 5470 5470 5472 5470 5471 5469 5468 5468 5469 5471 5476 5475 5475 5485 5490 5498 5506 5517 5526 5534 5543 5546 5551 5573 5570 5572 5568 5569 5574 5570 5566 5569 5571 5569 5563 5567 5568 5564 5562 5560
5469 5464 5465 5465 5462 5462 5462 5464 5462 5461 5461 5462 5464 5468 5469 5474 5479 5479 5482 5487 5499 5510 5514 5521 5525 5531 5531 5542 5540 5538 5542 5541 5541 5541 5541 5535 5545 5547 5541 5542 5544 5541 5538 5537
5461 5459 5457 5457 5455 5454 5454 5453 5452 5450 5453 5454 5455 5457 5460 5463 5466 5470 5477 5481 5487 5493 5499 5505 5512 5516 5509 5518 5519 5516 5518 5511 5519 5522 5516 5518 5525 5527 5528 5519 5518 5519 5518 5519